Location: Izdebno
(52.6670°N, 16.2170°E)
Time: 03:24:17
(UTC+02:00)

Transit 2A - Pass Details

Date: 23 February 2024
Orbit: 596 x 956 km, 66.7° (Epoch: 21 April)

Event Time Altitude Azimuth Distance (km) Brightness Sun altitude
Rises 00:19:06 0° 299° (WNW) 2,857 - -47.4°
Reaches altitude 10° 00:22:22 10° 325° (NW) 1,981 - -47.3°
Maximum altitude 00:24:43 14° 358° (N) 1,758 - -47.3°
Drops below altitude 10° 00:27:08 10° 30° (NNE) 2,048 - -47.3°
Sets 00:30:37 0° 56° (NE) 3,028 - -47.2°
